Corpus Christi, TX

1:14 AM CDT on October 19, 2017 (GMT -0500)
Corpus Christi International

Weather History for KCRP - April, 2013

Change the Weather History Date:

Tuesday, April 2, 2013

  Actual Average Record
Temperature  
Mean Temperature 77 °F 70 °F  
Max Temperature 82 °F 79 °F 95 °F (1982)
Min Temperature 71 °F 60 °F 43 °F (2005)
Degree Days  
Heating Degree Days 0 1  
Month to date heating degree days 0 2  
Since 1 July heating degree days 516 883  
Cooling Degree Days 12 6  
Month to date cooling degree days 21 12  
Year to date cooling degree days 322 203  
Growing Degree Days 26 (Base 50)    
Moisture  
Dew Point 68 °F    
Average Humidity 79    
Maximum Humidity 90    
Minimum Humidity 67    
Precipitation  
Precipitation T in 0.06 in 3.34 in (1997)
Month to date precipitation T 0.11  
Year to date precipitation 1.75 5.47  
Snow  
Snow 0.00 in - - ()
Month to date snowfall 0.0  
Since 1 July snowfall 0.0  
Snow Depth 0.00 in    
Sea Level Pressure  
Sea Level Pressure 29.89 in    
Wind  
Wind Speed 12 mph (ESE)    
Max Wind Speed 17 mph    
Max Gust Speed 22 mph    
Visibility 10 miles    
Events Rain , Thunderstorm    
T = Trace of Precipitation, MM = Missing Value Source: NWS Daily Summary

Daily Weather History Graph

Daily Weather History Graph

Search for Another Location

Airport or City:

Trip Planner

Search our weather history database for the weather conditions in past years. The results will help you decide how hot, cold, wet, or windy it might be!

Date:

Astronomy

Apr. 02, 2013 Rise Set
Actual Time 7:18 AM CDT 7:48 PM CDT
Civil Twilight 6:55 AM CDT 8:11 PM CDT
Nautical Twilight 6:27 AM CDT 8:39 PM CDT
Astronomical Twilight 5:59 AM CDT 9:07 PM CDT
Moon 1:33 AM CDT (4/2) 12:31 PM CDT (4/2)
Length of Visible Light 13h 16m
Length of Day
12h 29m
Waning Gibbous, 55% of the Moon is Illuminated
Apr 2
Waning Gibbous
Apr 2
Last Quarter
Apr 10
New
Apr 18
First Quarter
Apr 25
Full

Hourly Weather History & Observations

Time (CDT) Temp. Heat Index Dew Point Humidity Pressure Visibility Wind Dir Wind Speed Gust Speed Precip Events Conditions
12:51 AM 72.0 °F - 66.9 °F 84% 29.96 in 9.0 mi ESE 8.1 mph - 0.00 in Rain , Thunderstorm Light Thunderstorms and Rain
1:25 AM 71.6 °F - 66.2 °F 83% 29.95 in 10.0 mi ESE 12.7 mph - 0.00 in   Mostly Cloudy
1:51 AM 72.0 °F - 66.9 °F 84% 29.94 in 10.0 mi ESE 12.7 mph - 0.00 in   Mostly Cloudy
2:51 AM 72.0 °F - 66.9 °F 84% 29.92 in 10.0 mi SE 13.8 mph - N/A   Overcast
3:51 AM 72.0 °F - 68.0 °F 87% 29.90 in 10.0 mi SE 11.5 mph - N/A   Overcast
4:51 AM 72.0 °F - 68.0 °F 87% 29.91 in 10.0 mi SSE 10.4 mph - N/A   Overcast
5:21 AM 71.6 °F - 66.2 °F 83% 29.90 in 10.0 mi SSE 12.7 mph - N/A   Overcast
5:51 AM 71.1 °F - 66.9 °F 87% 29.87 in 9.0 mi East 11.5 mph - N/A   Scattered Clouds
6:00 AM 71.6 °F - 66.2 °F 83% 29.89 in 10.0 mi ESE 8.1 mph - N/A   Overcast
6:16 AM 71.6 °F - 68.0 °F 88% 29.91 in 10.0 mi SSE 6.9 mph - N/A   Overcast
6:51 AM 72.0 °F - 66.9 °F 84% 29.91 in 10.0 mi SE 9.2 mph - N/A   Overcast
6:58 AM 71.6 °F - 66.2 °F 83% 29.91 in 10.0 mi ESE 11.5 mph - N/A   Overcast
7:51 AM 72.0 °F - 66.9 °F 84% 29.92 in 9.0 mi ESE 8.1 mph - N/A   Mostly Cloudy
8:18 AM 73.4 °F - 68.0 °F 83% 29.93 in 10.0 mi ESE 6.9 mph - N/A   Scattered Clouds
8:35 AM 73.4 °F - 68.0 °F 83% 29.94 in 10.0 mi East 3.5 mph - N/A   Mostly Cloudy
8:44 AM 73.4 °F - 68.0 °F 83% 29.95 in 10.0 mi ESE 5.8 mph - N/A   Mostly Cloudy
8:51 AM 73.9 °F - 68.0 °F 82% 29.95 in 10.0 mi SE 6.9 mph - N/A   Mostly Cloudy
9:21 AM 75.2 °F - 68.0 °F 78% 29.94 in 10.0 mi East 9.2 mph - N/A   Mostly Cloudy
9:51 AM 75.0 °F - 68.0 °F 79% 29.94 in 10.0 mi East 12.7 mph - N/A   Mostly Cloudy
10:51 AM 77.0 °F - 68.0 °F 74% 29.94 in 10.0 mi East 12.7 mph - N/A   Mostly Cloudy
11:51 AM 77.0 °F - 68.0 °F 74% 29.95 in 10.0 mi East 11.5 mph - N/A   Mostly Cloudy
12:17 PM 78.8 °F - 68.0 °F 69% 29.95 in 10.0 mi East 11.5 mph - N/A   Mostly Cloudy
12:51 PM 77.0 °F - 68.0 °F 74% 29.94 in 10.0 mi East 12.7 mph - N/A   Mostly Cloudy
1:51 PM 80.1 °F 82.9 °F 69.1 °F 69% 29.90 in 10.0 mi East 15.0 mph - 0.00 in   Mostly Cloudy
2:51 PM 81.0 °F 83.8 °F 68.0 °F 65% 29.85 in 10.0 mi East 15.0 mph - N/A   Mostly Cloudy
3:51 PM 79.0 °F - 68.0 °F 69% 29.82 in 10.0 mi East 15.0 mph - N/A   Overcast
4:00 PM 80.6 °F 83.2 °F 68.0 °F 65% 29.82 in 10.0 mi East 16.1 mph - N/A   Mostly Cloudy
4:51 PM 81.0 °F 83.8 °F 68.0 °F 65% 29.80 in 10.0 mi East 16.1 mph - N/A   Mostly Cloudy
5:51 PM 80.1 °F 82.7 °F 68.0 °F 67% 29.78 in 10.0 mi SE 18.4 mph 21.9 mph N/A   Mostly Cloudy
6:51 PM 77.0 °F - 68.0 °F 74% 29.78 in 10.0 mi East 15.0 mph - N/A   Overcast
7:51 PM 75.9 °F - 69.1 °F 79% 29.78 in 10.0 mi ESE 13.8 mph - N/A   Overcast
8:42 PM 75.2 °F - 69.8 °F 83% 29.79 in 10.0 mi ESE 11.5 mph - N/A   Overcast
8:51 PM 75.0 °F - 69.1 °F 82% 29.79 in 10.0 mi ESE 12.7 mph - N/A   Overcast
9:51 PM 75.0 °F - 69.1 °F 82% 29.82 in 10.0 mi East 12.7 mph - N/A   Overcast
10:51 PM 73.9 °F - 69.1 °F 85% 29.83 in 10.0 mi East 11.5 mph - 0.00 in   Light Drizzle
11:07 PM 73.4 °F - 69.8 °F 88% 29.84 in 9.0 mi ENE 11.5 mph - 0.00 in   Light Drizzle
11:51 PM 73.9 °F - 69.1 °F 85% 29.82 in 8.0 mi ENE 11.5 mph - 0.00 in   Overcast